Cadillac, MI

2:10 PM EDT on September 21, 2019 (GMT -0400)
Wexford County

Weather History for KCAD - August, 2019

Change the Weather History Date:

Monday, August 19, 2019

  Actual Average Record
Temperature  
Mean Temperature 68 °F -  
Max Temperature 81 °F 75 °F 97 °F (1955)
Min Temperature 54 °F 50 °F 35 °F (1953)
Cooling Degree Days 2    
Growing Degree Days 18 (Base 50)    
Moisture  
Dew Point 54 °F    
Average Humidity 65    
Maximum Humidity 91    
Minimum Humidity 29    
Precipitation  
Precipitation 0.00 in - - ()
Sea Level Pressure  
Sea Level Pressure 30.01 in    
Wind  
Wind Speed 2 mph (West)    
Max Wind Speed 9 mph    
Max Gust Speed -    
Visibility 9 miles    
Events Fog    
Averages and records for this station are not official NWS values.
T = Trace of Precipitation, MM = Missing Value Source: NWS Daily Summary

Daily Weather History Graph

Daily Weather History Graph

Search for Another Location

Airport or City:

Astronomy

Aug. 19, 2019 Rise Set
Actual Time 6:49 AM EDT 8:40 PM EDT
Civil Twilight 6:18 AM EDT 9:11 PM EDT
Nautical Twilight 5:40 AM EDT 9:49 PM EDT
Astronomical Twilight 4:58 AM EDT 10:30 PM EDT
Moon 10:53 PM EDT (8/19) 10:37 AM EDT (8/19)
Length of Visible Light 14h 53m
Length of Day
13h 51m
Waning Gibbous, 85% of the Moon is Illuminated
Aug 19
Waning Gibbous
Aug 23
Last Quarter
Aug 30
New
Sep 5
First Quarter
Sep 14
Full

Hourly Weather History & Observations

Time (EDT) Temp. Dew Point Humidity Pressure Visibility Wind Dir Wind Speed Gust Speed Precip Events Conditions
12:19 AM 64.6 °F 61.9 °F 91% 29.88 in 10.0 mi SW 4.6 mph - N/A   Clear
12:37 AM 64.4 °F 61.7 °F 91% 29.89 in 10.0 mi WSW 3.5 mph - N/A   Clear
12:55 AM 64.4 °F 61.7 °F 91% 29.89 in 10.0 mi WSW 3.5 mph - N/A   Scattered Clouds
1:15 AM 64.6 °F 61.9 °F 91% 29.90 in 10.0 mi WSW 4.6 mph - N/A   Mostly Cloudy
1:35 AM 64.6 °F 61.9 °F 91% 29.90 in 10.0 mi Calm Calm - N/A   Mostly Cloudy
1:40 AM 64.6 °F 61.9 °F 91% 29.90 in 10.0 mi Calm Calm - N/A   Scattered Clouds
1:58 AM 64.6 °F 61.9 °F 91% 29.90 in 10.0 mi WSW 3.5 mph - N/A   Scattered Clouds
2:16 AM 64.4 °F 61.7 °F 91% 29.91 in 10.0 mi Calm Calm - N/A   Scattered Clouds
2:35 AM 64.8 °F 62.1 °F 91% 29.91 in 10.0 mi SW 3.5 mph - N/A   Mostly Cloudy
2:55 AM 65.3 °F 62.6 °F 91% 29.92 in 10.0 mi NW 5.8 mph - N/A   Overcast
3:19 AM 63.9 °F 61.2 °F 91% 29.93 in 10.0 mi NW 3.5 mph - N/A   Scattered Clouds
3:37 AM 62.6 °F 59.7 °F 90% 29.94 in 10.0 mi Calm Calm - N/A   Scattered Clouds
3:55 AM 61.9 °F 59.0 °F 90% 29.94 in 10.0 mi Calm Calm - N/A   Scattered Clouds
4:15 AM 59.9 °F 57.2 °F 91% 29.94 in 1.5 mi Calm Calm - N/A   Mist
4:35 AM 59.0 °F 56.3 °F 91% 29.95 in 1.0 mi Calm Calm - N/A   Overcast
4:58 AM 58.3 °F 55.6 °F 91% 29.95 in 0.5 mi Calm Calm - N/A Fog Fog
5:16 AM 58.3 °F 55.6 °F 91% 29.96 in 0.5 mi Calm Calm - N/A Fog Fog
5:35 AM 57.2 °F 54.5 °F 91% 29.96 in 0.5 mi Calm Calm - N/A Fog Fog
5:36 AM 57.2 °F 54.5 °F 91% 29.96 in 0.5 mi Calm Calm - N/A Fog Fog
5:55 AM 56.5 °F 53.8 °F 91% 29.96 in 0.5 mi Calm Calm - N/A Fog Fog
5:56 AM 56.3 °F 53.6 °F 91% 29.96 in 0.5 mi Calm Calm - N/A Fog Fog
6:19 AM 56.8 °F 54.1 °F 91% 29.97 in 0.8 mi Calm Calm - N/A   Mostly Cloudy
6:37 AM 55.9 °F 53.2 °F 91% 29.98 in 1.0 mi Calm Calm - N/A   Mostly Cloudy
6:55 AM 55.0 °F 52.3 °F 91% 29.99 in 0.5 mi Calm Calm - N/A Fog Fog
7:15 AM 54.9 °F 52.2 °F 91% 30.00 in 0.2 mi Calm Calm - N/A Fog Fog
7:35 AM 54.7 °F 52.0 °F 91% 30.00 in 10.0 mi Calm Calm - N/A   Scattered Clouds
7:58 AM 57.4 °F 54.7 °F 91% 30.01 in 10.0 mi Calm Calm - N/A   Clear
8:16 AM 59.4 °F 56.7 °F 91% 30.01 in 10.0 mi Calm Calm - N/A   Clear
8:35 AM 61.3 °F 58.6 °F 91% 30.02 in 10.0 mi Calm Calm - N/A   Clear
8:36 AM 61.5 °F 58.8 °F 91% 30.02 in 10.0 mi Calm Calm - N/A   Clear
8:55 AM 64.4 °F 61.5 °F 90% 30.02 in 10.0 mi Calm Calm - N/A   Clear
9:19 AM 67.5 °F 58.3 °F 72% 30.02 in 10.0 mi Calm Calm - N/A   Clear
9:37 AM 69.3 °F 54.1 °F 59% 30.03 in 10.0 mi North 3.5 mph - N/A   Clear
9:55 AM 70.2 °F 52.2 °F 53% 30.03 in 10.0 mi North 3.5 mph - N/A   Clear
9:56 AM 70.3 °F 52.3 °F 53% 30.03 in 10.0 mi North 3.5 mph - N/A   Clear
10:15 AM 71.1 °F 48.0 °F 44% 30.03 in 10.0 mi North 4.6 mph - N/A   Clear
10:35 AM 71.6 °F 47.1 °F 42% 30.03 in 10.0 mi North 3.5 mph - N/A   Clear
10:40 AM 71.8 °F 47.7 °F 42% 30.04 in 10.0 mi North 3.5 mph - N/A   Clear
10:58 AM 72.5 °F 50.2 °F 45% 30.04 in 10.0 mi NE 3.5 mph - N/A   Clear
11:16 AM 73.2 °F 49.6 °F 43% 30.05 in 10.0 mi Calm Calm - N/A   Clear
11:35 AM 73.8 °F 49.8 °F 43% 30.05 in 10.0 mi Calm Calm - N/A   Clear
11:55 AM 75.0 °F 51.1 °F 43% 30.05 in 10.0 mi Calm Calm - N/A   Scattered Clouds
12:19 PM 74.5 °F 49.8 °F 42% 30.05 in 10.0 mi North 3.5 mph - N/A   Scattered Clouds
12:37 PM 76.5 °F 50.9 °F 41% 30.05 in 10.0 mi SSW 9.2 mph - N/A   Scattered Clouds
12:55 PM 76.3 °F 51.1 °F 41% 30.05 in 10.0 mi SSW 4.6 mph - N/A   Scattered Clouds
12:56 PM 76.3 °F 51.1 °F 41% 30.05 in 10.0 mi SSW 3.5 mph - N/A   Scattered Clouds
1:15 PM 76.1 °F 49.8 °F 40% 30.05 in 10.0 mi Calm Calm - N/A   Scattered Clouds
1:35 PM 77.5 °F 48.6 °F 36% 30.05 in 10.0 mi WNW 3.5 mph - N/A   Clear
1:58 PM 77.7 °F 50.0 °F 38% 30.05 in 10.0 mi Calm Calm - N/A   Clear
2:16 PM 79.9 °F 49.8 °F 35% 30.05 in 10.0 mi West 8.1 mph - N/A   Clear
2:35 PM 78.1 °F 48.4 °F 35% 30.04 in 10.0 mi WSW 4.6 mph - N/A   Clear
2:36 PM 78.3 °F 48.4 °F 35% 30.04 in 10.0 mi SW 3.5 mph - N/A   Clear
2:55 PM 79.3 °F 47.5 °F 33% 30.04 in 10.0 mi Calm Calm - N/A   Clear
2:56 PM 79.2 °F 47.5 °F 33% 30.04 in 10.0 mi SW 3.5 mph - N/A   Clear
3:19 PM 79.9 °F 47.3 °F 32% 30.04 in 10.0 mi WSW 3.5 mph - N/A   Clear
3:37 PM 80.6 °F 47.3 °F 31% 30.03 in 10.0 mi Calm Calm - N/A   Clear
3:55 PM 81.3 °F 49.3 °F 33% 30.03 in 10.0 mi SW 5.8 mph - N/A   Clear
4:15 PM 80.6 °F 49.5 °F 34% 30.03 in 10.0 mi WSW 3.5 mph - N/A   Clear
4:35 PM 81.3 °F 48.7 °F 32% 30.03 in 10.0 mi West 3.5 mph - N/A   Clear
4:58 PM 80.6 °F 48.6 °F 33% 30.02 in 10.0 mi WSW 6.9 mph - N/A   Clear
5:16 PM 81.0 °F 47.7 °F 31% 30.02 in 10.0 mi Calm Calm - N/A   Clear
5:35 PM 80.6 °F 47.7 °F 31% 30.02 in 10.0 mi Calm Calm - N/A   Clear
5:36 PM 80.4 °F 47.3 °F 31% 30.02 in 10.0 mi Calm Calm - N/A   Clear
5:55 PM 81.0 °F 45.7 °F 29% 30.02 in 10.0 mi WSW 8.1 mph - N/A   Clear
6:18 PM 80.2 °F 47.3 °F 31% 30.03 in 10.0 mi SW 9.2 mph - N/A   Clear
6:55 PM 78.8 °F 46.2 °F 32% 30.03 in 10.0 mi WSW 5.8 mph - N/A   Clear
7:15 PM 78.4 °F 49.5 °F 36% 30.02 in 10.0 mi West 4.6 mph - N/A   Clear
7:16 PM 78.3 °F 50.2 °F 37% 30.02 in 10.0 mi West 4.6 mph - N/A   Clear
7:35 PM 77.2 °F 51.3 °F 40% 30.03 in 10.0 mi West 5.8 mph - N/A   Clear
7:40 PM 77.0 °F 52.0 °F 42% 30.02 in 10.0 mi West 4.6 mph - N/A   Clear
7:58 PM 74.3 °F 53.6 °F 48% 30.03 in 10.0 mi West 3.5 mph - N/A   Clear
8:16 PM 72.5 °F 55.9 °F 56% 30.03 in 10.0 mi West 5.8 mph - N/A   Clear
8:35 PM 69.8 °F 57.4 °F 65% 30.03 in 10.0 mi WNW 4.6 mph - N/A   Clear
8:55 PM 68.4 °F 58.3 °F 70% 30.03 in 10.0 mi NW 3.5 mph - N/A   Clear
8:56 PM 68.4 °F 58.3 °F 70% 30.03 in 10.0 mi NW 3.5 mph - N/A   Clear
9:19 PM 66.7 °F 58.3 °F 74% 30.03 in 10.0 mi Calm Calm - N/A   Clear
9:37 PM 66.0 °F 58.8 °F 78% 30.04 in 10.0 mi Calm Calm - N/A   Clear
9:55 PM 63.9 °F 59.7 °F 86% 30.04 in 10.0 mi Calm Calm - N/A   Clear
10:15 PM 60.6 °F 57.9 °F 91% 30.04 in 10.0 mi Calm Calm - N/A   Clear
10:35 PM 59.2 °F 56.5 °F 91% 30.05 in 10.0 mi Calm Calm - N/A   Clear
10:58 PM 58.6 °F 55.9 °F 91% 30.05 in 10.0 mi Calm Calm - N/A   Clear
11:16 PM 57.9 °F 55.2 °F 91% 30.05 in 10.0 mi Calm Calm - N/A   Clear
11:35 PM 56.3 °F 53.6 °F 91% 30.05 in 10.0 mi Calm Calm - N/A   Clear
11:36 PM 56.3 °F 53.6 °F 91% 30.05 in 10.0 mi Calm Calm - N/A   Clear
11:55 PM 56.1 °F 53.4 °F 91% 30.06 in 2.5 mi Calm Calm - N/A   Clear